Location: East Whittier
(33.9633°N, 118.0181°W)
Time: 19:01:29
(UTC+00:00)

Daily predictions for brighter satellites

Satellite Brightness Start Highest point End
(mag) Time Altitude Azimuth Time Altitude Azimuth Time Altitude Azimuth
Delta 2 Rocket 4.3 12:16:38 52° ENE 12:16:38 52° ENE 12:20:03 10° E
USA 234 3.6 12:13:39 10° NE 12:20:08 62° SE 12:25:57 13° SSW
SL-16 R/B 2.1 12:28:21 51° NNW 12:29:53 90° W 12:35:33 10° SSE
SL-8 R/B 4.1 12:32:33 50° N 12:33:12 54° NE 12:37:54 10° ESE
ADEOS 3.4 12:28:20 10° NNE 12:33:35 88° WNW 12:38:48 10° SSW
Cosmos 1745 Rocket 3.8 12:28:15 10° S 12:34:27 77° W 12:40:47 10° N
ASTRO E2 3.3 12:36:31 48° SSE 12:36:31 48° SSE 12:40:13 10° E
Cosmos 2151 3.0 12:37:04 10° S 12:41:15 77° E 12:45:26 10° N
SL-08 ROCKET BODY 4.5 12:38:20 10° SSW 12:44:09 51° W 12:50:07 10° N
ERS-2 2.3 12:41:00 10° SSE 12:44:35 67° ENE 12:45:29 46° NNE
SL-4 R/B 3.7 12:49:34 20° N 12:49:34 20° N 12:51:13 10° NNE
BREEZE-M DEB (TANK) 3.1 12:47:38 31° S 12:48:37 46° SE 12:53:34 10° ENE
OAO 3 Rocket 3.0 12:48:32 58° WNW 12:49:26 81° N 12:54:11 10° E
Cosmos 1777 Rocket 3.9 12:46:43 10° SSW 12:51:52 65° WNW 12:57:02 10° N
SJ 16-02 2.6 12:51:37 10° S 12:55:46 42° E 12:59:57 10° NNE
COSMO-SKYMED 1 3.4 12:52:16 10° SSE 12:56:28 51° ENE 13:00:40 10° N
Lacrosse 5 3.0 12:51:41 10° SSW 12:56:28 44° ESE 13:01:16 10° NE
Meteor PRIRODA 4.4 12:53:36 10° NNE 12:57:16 55° E 13:00:55 10° S
BREEZE M DEB (TANK) 4.5 12:39:47 10° SW 12:57:29 61° SE 13:01:50 10° ENE
CZ-4B R/B 1.1 12:54:20 10° S 12:57:22 73° SW 12:57:22 73° SW
METEOR-M 4.1 12:52:29 10° N 12:57:43 59° WNW 13:02:57 10° SSW
Cosmos 1709 Rocket 4.0 12:54:07 10° S 13:00:26 86° W 13:06:51 10° N
Cosmos 1606 2.8 12:57:12 14° N 13:00:31 76° E 13:04:17 10° S
BREEZE-M DEB (TANK) 3.8 13:02:40 24° N 13:02:40 24° N 13:04:42 10° NE
Meteor 1-31 Rocket 2.9 12:59:43 10° N 13:03:25 47° WNW 13:07:04 10° SSW
Cosmos 389 Rocket 2.2 13:02:33 40° NNW 13:03:38 74° W 13:07:06 10° S
Cosmos 2263 Rocket 2.1 12:59:11 10° SSW 13:04:47 67° WNW 13:10:27 10° NNE
CZ-4B R/B 3.0 13:08:01 10° N 13:12:31 78° WNW 13:16:56 10° SSW
PSLV R/B 4.4 13:11:58 10° SSE 13:16:05 63° ENE 13:20:12 10° N
GPS 2-04 Rocket1 3.3 13:14:43 17° SW 13:17:27 48° SSE 13:21:02 10° E
Cosmos 1441 Rocket 3.4 13:13:49 10° SSW 13:17:29 45° W 13:21:08 10° N
ALOS 3.3 13:15:53 10° NNW 13:22:35 13° WSW 13:23:20 10° WSW
SKYMED 3 4.5 13:16:09 10° S 13:20:28 81° WSW 13:24:50 10° NNW
Cosmos 1603 4.1 13:18:40 10° NNW 13:24:15 64° ENE 13:29:50 10° SSE
OAO 2 Rocket 3.7 13:21:31 13° WSW 13:25:59 65° SSE 13:31:08 10° E
Atlas Centaur 2 3.4 13:21:33 10° SW 13:26:32 31° SSE 13:30:37 10° ESE
MOS 1 Rocket 4.4 13:25:42 10° SE 13:30:01 45° ENE 13:34:36 10° N
Cosmos 1184 Rocket 2.7 13:28:22 10° SSW 13:31:37 63° W 13:34:51 10° N
FALCON 9 DEB 4.3 13:29:15 10° SSW 13:32:16 42° SE 13:35:20 10° ENE
Cosmos 1943 3.5 13:31:03 10° NNW 13:36:45 72° ENE 13:42:25 10° SSE
ASTRO F (AKARI) 4.1 13:34:04 10° N 13:37:06 59° WNW 13:40:10 10° SSW
Cosmos 2184 Rocket 4.4 13:32:23 10° S 13:38:35 69° E 13:44:53 10° NNE
NOSS 3-4 (A) 3.7 13:38:16 10° SW 13:43:49 44° NW 13:49:38 10° NNE
NOSS 3-4 (C) 3.6 13:38:22 10° SW 13:43:55 44° NW 13:49:47 10° NNE
SKYMED 2 4.0 13:40:27 10° S 13:44:31 40° W 13:48:37 10° NNW
SWAS 4.4 13:40:59 10° NNW 13:45:15 71° WSW 13:49:28 10° SSE
Envisat 3.1 13:41:36 10° NNE 13:46:43 81° ESE 13:51:46 10° S
NOSS 3-2 (C) 4.3 13:40:56 10° NNW 13:48:54 90° ENE 13:57:40 10° SSE
FALCON 9 DEB 3.4 13:45:48 10° SW 13:48:57 64° SE 13:52:08 10° NE
Meteor 1-4 Rocket 2.4 13:46:10 10° N 13:49:37 89° W 13:53:03 10° S
BREEZE-M (TANK) 4.4 13:36:42 10° SW 13:51:11 62° SE 13:54:54 10° ENE
Cosmos 2084 4.0 13:48:00 10° NNW 13:52:29 64° ENE 13:56:56 10° SE
Cosmos 1862 4.4 13:49:16 10° S 13:53:10 50° E 13:57:06 10° NNE
USA 276 2.8 13:50:36 13° WNW 13:53:13 40° SW 13:56:10 10° SSE
Cosmos 1937 Rocket 4.3 13:49:07 10° S 13:54:06 56° ESE 13:59:09 10° NNE
Cosmos 1515 Rocket 4.0 13:50:19 10° N 13:54:46 68° E 13:59:12 10° SSE
H-2A R/B 2.2 13:51:48 10° N 13:55:39 84° WNW 13:59:27 10° SSW
Delta 2 Rocket 3.5 13:53:30 10° WNW 13:58:08 76° SSW 14:02:11 10° ESE
Okean O Rocket 2.6 13:54:21 10° NNE 13:58:41 53° E 14:03:01 10° S
H-2A R/B 3.3 13:56:17 10° N 13:59:53 36° WNW 14:03:26 10° SW
USA 234 3.9 13:57:03 10° NNE 14:02:50 35° NW 14:08:37 10° W
ATLAS 2AS CENTAUR R/B 3.3 13:55:45 10° SW 14:03:22 50° NW 14:11:02 10° NNE
Cosmos 1933 4.4 14:05:39 10° NW 14:09:02 25° W 14:12:25 10° SW
Cosmos 1633 4.2 14:07:43 10° WSW 14:09:40 14° WNW 14:11:37 10° NW
Meteor 1-26 Rocket 4.5 14:04:37 10° NNW 14:10:14 51° W 14:15:37 10° SSW
PAYLOAD B 4.2 14:05:21 10° N 14:10:51 75° WNW 14:16:19 10° SSW
CENTAUR R/B 3.4 14:02:57 10° NW 14:11:22 69° WSW 14:20:10 10° SSE
